When you browse on this site, cookies collect data to enhance your experience and personalize the content and advertising you see.
Visit our Privacy Policy to learn more. By continuing to use the site, you agree to this use of cookies and data.
  • In United Kingdom
  • List of Countries
  • For 7 days
  • Water Temperature
  • Weather Map
  • Weather Widgets
  • user-avatar
    Login

    Hourly Weather Kosny

    Today, 21 October, Monday

    Time Temperature Precipitation Wind Pressure Humidity
    00:00 +15°C° 0 mm 1 mps 748 mmHg 75%
    01:00 +15°C° 0 mm 1 mps 749 mmHg 75%
    02:00 +15°C° 0 mm 1 mps 748 mmHg 76%
    03:00 +14°C° 0 mm 1 mps 748 mmHg 77%
    04:00 +14°C° 0 mm 2 mps 748 mmHg 77%
    05:00 +14°C° 0 mm 2 mps 749 mmHg 78%
    06:00 +14°C° 0 mm 2 mps 749 mmHg 79%
    07:00 +14°C° 0 mm 1 mps 749 mmHg 74%
    08:00 +16°C° 0 mm 1 mps 749 mmHg 68%
    09:00 +19°C° 0 mm 1 mps 750 mmHg 61%
    10:00 +21°C° 0 mm 1 mps 750 mmHg 55%
    11:00 +21°C° 0 mm 1 mps 750 mmHg 53%
    12:00 +22°C° 0 mm 1 mps 750 mmHg 51%
    13:00 +24°C° 0 mm 1 mps 751 mmHg 49%
    14:00 +23°C° 0 mm 1 mps 751 mmHg 54%
    15:00 +22°C° 0 mm 1 mps 751 mmHg 58%
    16:00 +21°C° 0 mm 1 mps 751 mmHg 63%
    17:00 +20°C° 0 mm 1 mps 751 mmHg 66%
    18:00 +19°C° 0 mm 1 mps 751 mmHg 69%
    19:00 +18°C° 0 mm 1 mps 752 mmHg 72%
    20:00 +17°C° 0 mm 2 mps 752 mmHg 73%
    21:00 +16°C° 0 mm 2 mps 752 mmHg 74%
    22:00 +16°C° 0 mm 2 mps 751 mmHg 76%
    23:00 +16°C° 0 mm 2 mps 752 mmHg 76%

    Tomorrow, 22 October, Tuesday

    Time Temperature Precipitation Wind Pressure Humidity
    00:00 +15°C° 0 mm 2 mps 752 mmHg 76%
    01:00 +15°C° 0 mm 2 mps 752 mmHg 77%
    02:00 +15°C° 0 mm 1 mps 752 mmHg 78%
    03:00 +14°C° 0 mm 1 mps 752 mmHg 79%
    04:00 +14°C° 0 mm 1 mps 752 mmHg 80%
    05:00 +14°C° 0 mm 1 mps 752 mmHg 81%
    06:00 +14°C° 0 mm 1 mps 752 mmHg 81%
    07:00 +14°C° 0 mm 1 mps 753 mmHg 82%
    08:00 +16°C° 0 mm 1 mps 753 mmHg 75%
    09:00 +17°C° 0 mm 2 mps 753 mmHg 69%
    10:00 +19°C° 0 mm 2 mps 753 mmHg 62%
    11:00 +21°C° 0 mm 1 mps 753 mmHg 60%
    12:00 +22°C° 0 mm 1 mps 753 mmHg 57%
    13:00 +23°C° 0 mm 1 mps 753 mmHg 55%
    14:00 +22°C° 0 mm 1 mps 752 mmHg 59%
    15:00 +21°C° 0 mm 1 mps 752 mmHg 64%
    16:00 +20°C° 0 mm 1 mps 752 mmHg 68%
    17:00 +19°C° 0 mm 1 mps 752 mmHg 72%
    18:00 +18°C° 0 mm 1 mps 752 mmHg 76%
    19:00 +16°C° 0 mm 1 mps 752 mmHg 80%
    20:00 +16°C° 0 mm 1 mps 752 mmHg 83%
    21:00 +16°C° 0 mm 1 mps 752 mmHg 85%
    22:00 +15°C° 0 mm 1 mps 752 mmHg 87%
    23:00 +15°C° 0 mm 1 mps 752 mmHg 89%

    Day after tomorrow, 23 October, Wednesday

    Time Temperature Precipitation Wind Pressure Humidity
    00:00 +14°C° 0 mm 2 mps 752 mmHg 90%
    01:00 +14°C° 0 mm 2 mps 752 mmHg 92%
    02:00 +14°C° 0 mm 2 mps 752 mmHg 92%
    03:00 +14°C° 0 mm 2 mps 752 mmHg 93%
    04:00 +13°C° 0 mm 2 mps 752 mmHg 94%
    05:00 +13°C° 0 mm 2 mps 752 mmHg 94%
    06:00 +13°C° 0 mm 2 mps 752 mmHg 95%
    07:00 +13°C° 0 mm 2 mps 752 mmHg 95%
    08:00 +14°C° 0 mm 1 mps 752 mmHg 87%
    09:00 +16°C° 0 mm 1 mps 752 mmHg 80%
    10:00 +18°C° 0 mm 1 mps 753 mmHg 72%
    11:00 +19°C° 0 mm 1 mps 752 mmHg 68%
    12:00 +18°C° 0 mm 0 mps 752 mmHg 64%
    13:00 +19°C° 0 mm 0 mps 752 mmHg 60%
    14:00 +20°C° 0 mm 1 mps 752 mmHg 62%
    15:00 +19°C° 0 mm 1 mps 751 mmHg 65%
    16:00 +19°C° 0 mm 1 mps 751 mmHg 67%
    17:00 +17°C° 0 mm 2 mps 751 mmHg 70%
    18:00 +16°C° 0 mm 2 mps 751 mmHg 73%
    19:00 +15°C° 0 mm 2 mps 751 mmHg 76%
    20:00 +14°C° 0 mm 2 mps 751 mmHg 79%
    21:00 +14°C° 0 mm 2 mps 751 mmHg 82%
    22:00 +12°C° 0 mm 3 mps 751 mmHg 85%
    23:00 +12°C° 0 mm 3 mps 751 mmHg 87%

    24 October, Thursday

    Time Temperature Precipitation Wind Pressure Humidity
    00:00 +12°C° 0 mm 3 mps 751 mmHg 89%
    01:00 +12°C° 0 mm 3 mps 750 mmHg 91%
    02:00 +12°C° 0 mm 3 mps 750 mmHg 92%
    03:00 +12°C° 0 mm 3 mps 750 mmHg 93%
    04:00 +12°C° 0 mm 3 mps 749 mmHg 94%
    05:00 +12°C° 0 mm 3 mps 749 mmHg 94%
    06:00 +12°C° 0 mm 4 mps 749 mmHg 95%
    07:00 +12°C° 0 mm 4 mps 749 mmHg 95%
    08:00 +14°C° 0 mm 4 mps 748 mmHg 87%
    09:00 +15°C° 0 mm 5 mps 748 mmHg 78%
    10:00 +17°C° 0 mm 5 mps 748 mmHg 70%
    11:00 +19°C° 0 mm 5 mps 748 mmHg 65%
    12:00 +20°C° 0 mm 5 mps 747 mmHg 59%
    13:00 +21°C° 0 mm 5 mps 747 mmHg 54%
    14:00 +21°C° 0 mm 4 mps 747 mmHg 57%
    15:00 +20°C° 0 mm 4 mps 746 mmHg 59%
    16:00 +19°C° 0 mm 3 mps 746 mmHg 62%
    17:00 +18°C° 0 mm 3 mps 746 mmHg 65%
    18:00 +17°C° 0 mm 3 mps 746 mmHg 68%
    19:00 +16°C° 0 mm 3 mps 746 mmHg 71%
    20:00 +16°C° 0 mm 3 mps 747 mmHg 73%
    21:00 +14°C° 0 mm 3 mps 747 mmHg 75%
    22:00 +15°C° 0 mm 2 mps 747 mmHg 77%
    23:00 +14°C° 0 mm 2 mps 747 mmHg 77%

    25 October, Friday

    Time Temperature Precipitation Wind Pressure Humidity
    00:00 +14°C° 0 mm 2 mps 747 mmHg 76%
    01:00 +14°C° 0 mm 2 mps 747 mmHg 76%
    02:00 +14°C° 0 mm 2 mps 747 mmHg 76%
    03:00 +13°C° 0 mm 2 mps 747 mmHg 75%
    04:00 +13°C° 0 mm 2 mps 747 mmHg 75%
    05:00 +13°C° 0 mm 2 mps 748 mmHg 74%
    06:00 +13°C° 0 mm 2 mps 748 mmHg 74%
    07:00 +12°C° 0 mm 3 mps 749 mmHg 73%
    08:00 +14°C° 0 mm 3 mps 749 mmHg 69%
    09:00 +16°C° 0 mm 3 mps 749 mmHg 64%
    10:00 +18°C° 0 mm 4 mps 750 mmHg 60%
    11:00 +19°C° 0 mm 4 mps 750 mmHg 60%
    12:00 +19°C° 0 mm 4 mps 750 mmHg 60%
    13:00 +20°C° 0 mm 4 mps 750 mmHg 60%
    14:00 +19°C° 0 mm 3 mps 750 mmHg 65%
    15:00 +18°C° 0 mm 3 mps 750 mmHg 70%
    16:00 +17°C° 0 mm 2 mps 750 mmHg 74%
    17:00 +16°C° 0 mm 2 mps 751 mmHg 78%
    18:00 +16°C° 0 mm 2 mps 751 mmHg 82%
    19:00 +15°C° 0 mm 1 mps 751 mmHg 86%
    20:00 +14°C° 0 mm 1 mps 751 mmHg 87%
    21:00 +14°C° 0 mm 1 mps 751 mmHg 88%
    22:00 +14°C° 0 mm 1 mps 751 mmHg 90%
    23:00 +13°C° 0 mm 1 mps 751 mmHg 90%

    26 October, Saturday

    Time Temperature Precipitation Wind Pressure Humidity
    00:00 +13°C° 0 mm 1 mps 751 mmHg 90%
    01:00 +12°C° 0 mm 0 mps 751 mmHg 90%
    02:00 +13°C° 0 mm 1 mps 751 mmHg 90%
    03:00 +12°C° 0 mm 1 mps 750 mmHg 91%
    04:00 +12°C° 0 mm 1 mps 750 mmHg 91%
    05:00 +12°C° 0 mm 2 mps 750 mmHg 92%
    06:00 +12°C° 0 mm 2 mps 750 mmHg 92%
    07:00 +12°C° 0 mm 2 mps 749 mmHg 93%
    08:00 +13°C° 0 mm 3 mps 749 mmHg 85%
    09:00 +15°C° 0 mm 4 mps 749 mmHg 77%
    10:00 +18°C° 0 mm 4 mps 749 mmHg 69%
    11:00 +19°C° 0 mm 4 mps 749 mmHg 64%
    12:00 +19°C° 0 mm 5 mps 749 mmHg 59%
    13:00 +20°C° 0 mm 5 mps 748 mmHg 54%
    14:00 +20°C° 0 mm 4 mps 748 mmHg 58%
    15:00 +19°C° 0 mm 4 mps 747 mmHg 62%
    16:00 +18°C° 0 mm 3 mps 747 mmHg 66%
    17:00 +17°C° 0 mm 3 mps 747 mmHg 70%
    18:00 +16°C° 0 mm 3 mps 747 mmHg 74%
    19:00 +14°C° 0 mm 3 mps 747 mmHg 78%
    20:00 +14°C° 0 mm 3 mps 748 mmHg 80%
    21:00 +13°C° 0 mm 3 mps 748 mmHg 82%
    22:00 +13°C° 0 mm 3 mps 748 mmHg 83%
    23:00 +13°C° 0 mm 3 mps 747 mmHg 84%

    27 October, Sunday

    Time Temperature Precipitation Wind Pressure Humidity
    00:00 +13°C° 0 mm 3 mps 747 mmHg 84%
    01:00 +12°C° 0 mm 4 mps 747 mmHg 84%
    02:00 +12°C° 0 mm 4 mps 747 mmHg 83%
    03:00 +13°C° 0 mm 4 mps 747 mmHg 82%
    04:00 +13°C° 0 mm 5 mps 746 mmHg 81%
    05:00 +12°C° 0.1 mm 5 mps 747 mmHg 80%
    06:00 +10°C° 0.1 mm 5 mps 747 mmHg 80%
    07:00 +9°C° 0.1 mm 6 mps 748 mmHg 79%
    08:00 +9°C° 0.1 mm 5 mps 749 mmHg 77%
    09:00 +9°C° 0.1 mm 5 mps 749 mmHg 75%
    10:00 +8°C° 0.1 mm 5 mps 750 mmHg 72%
    11:00 +9°C° 0 mm 5 mps 750 mmHg 64%
    12:00 +9°C° 0 mm 6 mps 750 mmHg 55%
    13:00 +10°C° 0 mm 6 mps 750 mmHg 46%
    14:00 +9°C° 0 mm 5 mps 750 mmHg 49%
    15:00 +8°C° 0 mm 5 mps 750 mmHg 51%
    16:00 +8°C° 0 mm 4 mps 750 mmHg 53%
    17:00 +7°C° 0 mm 4 mps 751 mmHg 55%
    18:00 +7°C° 0 mm 5 mps 751 mmHg 57%
    19:00 +6°C° 0 mm 5 mps 751 mmHg 59%
    20:00 +6°C° 0 mm 5 mps 751 mmHg 63%
    21:00 +6°C° 0 mm 4 mps 751 mmHg 66%
    22:00 +5°C° 0 mm 4 mps 751 mmHg 69%
    23:00 +5°C° 0 mm 5 mps 751 mmHg 70%
    Show more